Location: Newark
(48.1236°N, 0.7169°W)
Time: 14:06:11
(UTC+00:00)

Envisat - Pass Details

Date: 22 November 2019
Orbit: 764 x 766 km, 98.1° (Epoch: 13 December)

Event Time Altitude Azimuth Distance (km) Brightness Sun altitude
Rises 17:05:33 0° 140° (SE) 3,223 6.0 -8.0°
Reaches altitude 10° 17:07:58 10° 132° (SE) 2,301 5.2 -8.4°
Maximum altitude 17:12:36 37° 66° (ENE) 1,173 3.5 -9.1°
Drops below altitude 10° 17:17:16 10° 0° (N) 2,314 5.3 -9.8°
Sets 17:19:43 0° 353° (N) 3,245 6.1 -10.2°
